Lander, WY

6:54 AM MST on December 11, 2016 (GMT -0700)
Hunt

Weather History for KLND - August, 2014

Change the Weather History Date:

Tuesday, August 5, 2014

  Actual Average Record
Temperature  
Mean Temperature 68 °F 72 °F  
Max Temperature 81 °F 87 °F 101 °F (1979)
Min Temperature 54 °F 56 °F 39 °F (1896)
Degree Days  
Heating Degree Days 0 0  
Month to date heating degree days 0 0  
Since 1 June heating degree days 139 142  
Since 1 July heating degree days 3 16  
Cooling Degree Days 3 7  
Month to date cooling degree days 27 35  
Year to date cooling degree days 310 312  
Since 1 June cooling degree days 292 307  
Growing Degree Days 17 (Base 50)    
Moisture  
Dew Point 55 °F    
Average Humidity 70    
Maximum Humidity 100    
Minimum Humidity 39    
Precipitation  
Precipitation 0.20 in 0.03 in 0.68 in (1891)
Month to date precipitation 0.63 0.14  
Year to date precipitation 6.04 8.41  
Snow  
Snow 0.00 in 0.00 in - ()
Month to date snowfall 0.0 0.0  
Since 1 June snowfall 0.0 0.1  
Since 1 July snowfall 0.0 0.0  
Snow Depth 0.00 in    
Sea Level Pressure  
Sea Level Pressure 30.00 in    
Wind  
Wind Speed 6 mph (WNW)    
Max Wind Speed 23 mph    
Max Gust Speed 28 mph    
Visibility 8 miles    
Events Rain    
T = Trace of Precipitation, MM = Missing Value Source: NWS Daily Summary

Daily Weather History Graph

Daily Weather History Graph

Search for Another Location

Airport or City:

Trip Planner

Search our weather history database for the weather conditions in past years. The results will help you decide how hot, cold, wet, or windy it might be!

Date:

Astronomy

Aug. 05, 2014 Rise Set
Actual Time 6:10 AM MDT 8:30 PM MDT
Civil Twilight 5:38 AM MDT 9:02 PM MDT
Nautical Twilight 4:59 AM MDT 9:41 PM MDT
Astronomical Twilight 4:15 AM MDT 10:24 PM MDT
Moon 3:49 PM MDT (8/5) 1:00 AM MDT (8/5)
Length of Visible Light 15h 23m
Length of Day
14h 20m
Waxing Gibbous, 68% of the Moon is Illuminated
Aug 5
Waxing Gibbous
Aug 10
Full
Aug 17
Last Quarter
Aug 25
New
Sep 2
First Quarter

Hourly Weather History & Observations

Time (MDT) Temp. Heat Index Dew Point Humidity Pressure Visibility Wind Dir Wind Speed Gust Speed Precip Events Conditions
12:53 AM 57.0 °F - 55.0 °F 93% 30.01 in 10.0 mi WSW 8.1 mph - N/A   Clear
1:53 AM 57.0 °F - 54.0 °F 89% 29.98 in 10.0 mi WSW 6.9 mph - N/A   Partly Cloudy
2:53 AM 57.0 °F - 54.0 °F 89% 29.97 in 10.0 mi West 5.8 mph - N/A   Partly Cloudy
3:22 AM 55.9 °F - 55.0 °F 97% 30.15 in 2.5 mi Calm Calm - N/A   Mostly Cloudy
3:29 AM 55.0 °F - 54.0 °F 96% 30.16 in 1.0 mi Calm Calm - N/A   Mostly Cloudy
3:34 AM 55.0 °F - 54.0 °F 96% 30.16 in 4.0 mi WNW 3.5 mph - N/A   Mostly Cloudy
3:53 AM 57.0 °F - 54.0 °F 89% 30.00 in 10.0 mi WNW 6.9 mph - N/A   Mostly Cloudy
4:53 AM 55.0 °F - 53.1 °F 93% 30.01 in 10.0 mi SW 8.1 mph - N/A   Clear
5:53 AM 54.0 °F - 53.1 °F 97% 30.01 in 9.0 mi Calm Calm - N/A   Clear
6:53 AM 57.9 °F - 54.0 °F 87% 30.00 in 10.0 mi NNW 4.6 mph - N/A   Overcast
7:53 AM 57.0 °F - 55.0 °F 93% 30.00 in 7.0 mi Calm Calm - N/A   Overcast
8:53 AM 57.9 °F - 55.9 °F 93% 30.02 in 6.0 mi NW 4.6 mph - 0.01 in Rain Light Rain
9:53 AM 60.1 °F - 57.9 °F 93% 30.02 in 7.0 mi West 4.6 mph - 0.00 in   Clear
10:53 AM 64.9 °F - 59.0 °F 81% 30.01 in 8.0 mi NNW 4.6 mph - N/A   Partly Cloudy
11:53 AM 68.0 °F - 57.9 °F 70% 29.99 in 10.0 mi Calm Calm - N/A   Mostly Cloudy
12:53 PM 72.0 °F - 55.9 °F 57% 29.96 in 10.0 mi Variable 3.5 mph - N/A   Scattered Clouds
1:53 PM 75.9 °F - 57.0 °F 52% 29.93 in 10.0 mi Variable 4.6 mph - N/A   Clear
2:53 PM 79.0 °F - 54.0 °F 42% 29.91 in 10.0 mi NNE 6.9 mph - N/A   Clear
3:53 PM 80.1 °F 79.9 °F 53.1 °F 39% 29.88 in 10.0 mi North 4.6 mph - N/A   Partly Cloudy
4:53 PM 73.0 °F - 51.1 °F 46% 29.91 in 10.0 mi NW 18.4 mph 28.8 mph N/A   Partly Cloudy
5:53 PM 71.1 °F - 55.0 °F 57% 29.91 in 10.0 mi WNW 6.9 mph - N/A   Clear
6:53 PM 63.0 °F - 52.0 °F 67% 29.97 in 4.0 mi WSW 17.3 mph 27.6 mph 0.00 in Rain Light Rain
7:01 PM 63.0 °F - 52.0 °F 67% 30.11 in 1.8 mi SW 9.2 mph - 0.05 in Rain Rain
7:22 PM 62.1 °F - 53.1 °F 72% 30.10 in 3.0 mi ENE 9.2 mph - 0.19 in Rain Light Rain
7:53 PM 63.0 °F - 55.0 °F 75% 29.97 in 10.0 mi Calm Calm - 0.19 in   Mostly Cloudy
8:53 PM 62.1 °F - 54.0 °F 75% 29.98 in 10.0 mi East 6.9 mph - 0.00 in   Overcast
9:53 PM 62.1 °F - 55.0 °F 78% 30.02 in 10.0 mi North 6.9 mph - N/A   Scattered Clouds
10:53 PM 62.1 °F - 54.0 °F 75% 29.99 in 10.0 mi SSW 4.6 mph - N/A   Clear
11:53 PM 57.9 °F - 55.0 °F 90% 30.00 in 10.0 mi East 5.8 mph - N/A   Clear